| time (UTC) | temp F | wind direction | speed MPH | gust MPH | rain 1hr in | rain 24hr in | rain mn in | humidity % | barometer mb |
| 20260903211644 | 71 | 351 | 0.0 | 0.0 | 0.00 | 1.08 | 1.08 | 99 | 1013.4 |
| 20260903211141 | 71 | 23 | 0.0 | 0.0 | 0.00 | 1.08 | 1.08 | 99 | 1013.3 |
| 20260903210636 | 71 | 96 | 1.0 | 2.0 | 0.00 | 1.08 | 1.08 | 99 | 1013.1 |
| 20260903210132 | 71 | 101 | 0.0 | 0.0 | 0.00 | 1.08 | 1.08 | 99 | 1013.2 |
| 20260903205631 | 71 | 80 | 1.0 | 3.0 | 0.00 | 1.08 | 1.08 | 99 | 1013.3 |
| 20260903205130 | 71 | 3 | 0.0 | 0.0 | 0.00 | 1.08 | 1.08 | 99 | 1013.5 |
| 20260903204626 | 70 | 132 | 2.0 | 2.0 | 0.00 | 1.08 | 1.08 | 99 | 1013.7 |
| 20260903204122 | 71 | 153 | 0.0 | 1.0 | 0.00 | 1.08 | 1.08 | 99 | 1013.8 |
| 20260903203617 | 71 | 62 | 1.0 | 1.0 | 0.00 | 1.08 | 1.08 | 99 | 1013.7 |
| 20260903203112 | 71 | 242 | 0.0 | 0.0 | 0.00 | 1.08 | 1.08 | 99 | 1013.8 |
| 20260903202607 | 70 | 350 | 0.0 | 0.0 | 0.12 | 1.08 | 1.08 | 99 | 1014.2 |
| 20260903202102 | 70 | 54 | 0.0 | 0.0 | 0.12 | 1.08 | 1.08 | 99 | 1014.3 |
| 20260903201551 | 69 | 336 | 0.0 | 0.0 | 0.12 | 1.07 | 1.07 | 99 | 1014.6 |
| 20260903201050 | 69 | 344 | 1.0 | 1.0 | 0.19 | 1.06 | 1.06 | 99 | 1014.9 |
| 20260903200546 | 69 | 264 | 0.0 | 0.0 | 0.24 | 1.05 | 1.05 | 99 | 1014.8 |
| 20260903200041 | 69 | 281 | 0.0 | 0.0 | 0.24 | 1.03 | 1.03 | 99 | 1014.4 |
| 20260903195537 | 69 | 43 | 0.0 | 0.0 | 0.19 | 1.01 | 1.01 | 99 | 1014.8 |
| 20260903195032 | 69 | 18 | 0.0 | 0.0 | 0.19 | 0.99 | 0.99 | 99 | 1015.1 |
| 20260903194527 | 69 | 282 | 1.0 | 2.0 | 0.24 | 0.98 | 0.98 | 99 | 1015.6 |
| 20260903194022 | 70 | 343 | 0.0 | 0.0 | 0.17 | 0.96 | 0.96 | 99 | 1015.3 |
| 20260903193519 | 70 | 303 | 2.0 | 2.0 | 0.12 | 0.94 | 0.94 | 99 | 1015.7 |
| 20260903193014 | 70 | 60 | 0.0 | 0.0 | 0.07 | 0.93 | 0.93 | 99 | 1015.6 |
| 20260903192510 | 70 | 248 | 0.0 | 0.0 | 0.00 | 0.92 | 0.92 | 99 | 1015.8 |
| 20260903192005 | 70 | 217 | 1.0 | 1.0 | 0.05 | 0.92 | 0.92 | 99 | 1015.8 |
| 20260903191501 | 70 | 259 | 0.0 | 0.0 | 0.24 | 0.92 | 0.92 | 99 | 1014.8 |
| 20260903191000 | 70 | 330 | 0.0 | 0.0 | 0.35 | 0.92 | 0.92 | 99 | 1014.2 |
| 20260903190455 | 70 | 39 | 1.0 | 2.0 | 0.19 | 0.88 | 0.88 | 99 | 1014.2 |
| 20260903185949 | 70 | 53 | 2.0 | 3.0 | 0.07 | 0.86 | 0.86 | 99 | 1015.2 |
| 20260903185445 | 69 | 303 | 1.0 | 2.0 | 0.12 | 0.86 | 0.86 | 99 | 1015.5 |
| 20260903184944 | 70 | 326 | 4.0 | 6.0 | 0.17 | 0.85 | 0.85 | 99 | 1014.8 |
| 20260903184442 | 69 | 283 | 3.0 | 3.0 | 0.12 | 0.84 | 0.84 | 99 | 1013.8 |
| 20260903183936 | 69 | 247 | 0.0 | 0.0 | 0.00 | 0.82 | 0.82 | 99 | 1012.4 |
| 20260903183431 | 69 | 258 | 0.0 | 0.0 | 0.00 | 0.82 | 0.82 | 99 | 1012.4 |
| 20260903182930 | 69 | 252 | 0.0 | 0.0 | 0.00 | 0.82 | 0.82 | 99 | 1012.6 |
| 20260903182429 | 69 | 112 | 1.0 | 2.0 | 0.07 | 0.82 | 0.82 | 99 | 1013.0 |
| 20260903181925 | 68 | 38 | 1.0 | 1.0 | 1.87 | 0.82 | 0.82 | 99 | 1013.3 |
| 20260903181419 | 69 | 3 | 3.0 | 5.0 | 3.31 | 0.82 | 0.82 | 99 | 1012.5 |
| 20260903180918 | 72 | 186 | 3.0 | 3.0 | 2.27 | 0.53 | 0.53 | 99 | 1015.9 |
| 20260903180413 | 73 | 240 | 4.0 | 6.0 | 0.19 | 0.17 | 0.17 | 99 | 1014.1 |
| 20260903175912 | 73 | 338 | 0.0 | 1.0 | 0.07 | 0.15 | 0.15 | 99 | 1012.6 |
| 20260903175407 | 73 | 282 | 0.0 | 0.0 | 0.00 | 0.14 | 0.14 | 99 | 1012.2 |
| 20260903174902 | 73 | 83 | 0.0 | 0.0 | 0.00 | 0.14 | 0.14 | 99 | 1012.3 |
| 20260903174357 | 73 | 11 | 0.0 | 0.0 | 0.00 | 0.14 | 0.14 | 99 | 1012.4 |
| 20260903173857 | 74 | 5 | 0.0 | 0.0 | 0.00 | 0.14 | 0.14 | 99 | 1012.4 |
| 20260903173352 | 74 | 279 | 0.0 | 0.0 | 0.35 | 0.14 | 0.14 | 98 | 1012.7 |
| 20260903172848 | 75 | 328 | 0.0 | 0.0 | 0.42 | 0.14 | 0.14 | 96 | 1012.7 |
| 20260903172342 | 75 | 96 | 1.0 | 2.0 | 0.12 | 0.09 | 0.09 | 92 | 1012.9 |
| 20260903171838 | 75 | 59 | 1.0 | 1.0 | 0.00 | 0.07 | 0.07 | 92 | 1013.2 |
| 20260903171333 | 75 | 70 | 0.0 | 0.0 | 0.00 | 0.07 | 0.07 | 92 | 1013.0 |
| 20260903170832 | 75 | 66 | 0.0 | 1.0 | 0.00 | 0.07 | 0.07 | 92 | 1012.7 |
| 20260903170328 | 76 | 67 | 2.0 | 5.0 | 0.00 | 0.07 | 0.07 | 91 | 1012.7 |
| 20260903165826 | 76 | 91 | 1.0 | 1.0 | 0.00 | 0.07 | 0.07 | 92 | 1012.7 |
| 20260903165325 | 75 | 81 | 1.0 | 1.0 | 0.00 | 0.07 | 0.07 | 93 | 1013.0 |
| 20260903164820 | 75 | 64 | 3.0 | 5.0 | 0.00 | 0.07 | 0.07 | 93 | 1013.1 |
| 20260903164316 | 75 | 54 | 0.0 | 1.0 | 0.00 | 0.07 | 0.07 | 94 | 1013.3 |
| 20260903163815 | 75 | 26 | 0.0 | 0.0 | 0.00 | 0.07 | 0.07 | 94 | 1013.3 |
| 20260903163312 | 75 | 76 | 0.0 | 0.0 | 0.00 | 0.07 | 0.07 | 95 | 1013.4 |
| 20260903162807 | 75 | 158 | 3.0 | 5.0 | 0.00 | 0.07 | 0.07 | 95 | 1013.5 |
| 20260903162306 | 74 | 186 | 0.0 | 0.0 | 0.00 | 0.07 | 0.07 | 96 | 1013.5 |
| 20260903161759 | 74 | 61 | 0.0 | 1.0 | 0.00 | 0.07 | 0.07 | 96 | 1013.6 |
| 20260903161254 | 75 | 302 | 0.0 | 0.0 | 0.00 | 0.07 | 0.07 | 98 | 1013.6 |
| 20260903160750 | 74 | 281 | 0.0 | 0.0 | 0.00 | 0.07 | 0.07 | 98 | 1013.7 |
| 20260903160249 | 74 | 54 | 0.0 | 0.0 | 0.00 | 0.07 | 0.07 | 98 | 1013.6 |
| 20260903155747 | 74 | 56 | 0.0 | 1.0 | 0.00 | 0.07 | 0.07 | 98 | 1013.8 |
| 20260903155242 | 74 | 306 | 0.0 | 0.0 | 0.00 | 0.07 | 0.07 | 99 | 1013.8 |
| 20260903154738 | 73 | 291 | 0.0 | 0.0 | 0.00 | 0.07 | 0.07 | 99 | 1013.9 |
| 20260903154234 | 72 | 19 | 0.0 | 1.0 | 0.00 | 0.07 | 0.07 | 99 | 1013.9 |
| 20260903153729 | 73 | 229 | 3.0 | 3.0 | 0.00 | 0.07 | 0.07 | 99 | 1014.2 |
| 20260903153225 | 73 | 292 | 0.0 | 0.0 | 0.00 | 0.07 | 0.07 | 99 | 1014.5 |
| 20260903152721 | 73 | 265 | 0.0 | 0.0 | 0.00 | 0.07 | 0.07 | 99 | 1014.7 |
| 20260903152217 | 72 | 224 | 1.0 | 1.0 | 0.00 | 0.07 | 0.07 | 99 | 1014.6 |
| 20260903151717 | 73 | 310 | 3.0 | 5.0 | 0.00 | 0.07 | 0.07 | 99 | 1015.4 |
| 20260903151212 | 75 | 308 | 3.0 | 5.0 | 0.00 | 0.07 | 0.07 | 99 | 1015.2 |
| 20260903150707 | 75 | 312 | 0.0 | 0.0 | 0.00 | 0.07 | 0.07 | 99 | 1015.2 |
| 20260903150202 | 76 | 306 | 0.0 | 0.0 | 0.00 | 0.07 | 0.07 | 99 | 1015.1 |
| 20260903145702 | 76 | 249 | 1.0 | 2.0 | 0.00 | 0.07 | 0.07 | 99 | 1014.7 |
| 20260903145157 | 76 | 301 | 1.0 | 1.0 | 0.00 | 0.07 | 0.07 | 99 | 1014.4 |
| 20260903144656 | 77 | 296 | 1.0 | 1.0 | 0.05 | 0.07 | 0.07 | 99 | 1013.6 |
| 20260903144152 | 77 | 349 | 0.0 | 0.0 | 0.35 | 0.07 | 0.07 | 99 | 1013.3 |
| 20260903143648 | 77 | 298 | 0.0 | 0.0 | 0.35 | 0.07 | 0.07 | 99 | 1013.3 |
| 20260903143143 | 78 | 181 | 3.0 | 3.0 | 0.19 | 0.04 | 0.04 | 97 | 1013.3 |
| 20260903142639 | 78 | 311 | 5.0 | 7.0 | 0.00 | 0.01 | 0.01 | 93 | 1014.3 |
| 20260903142135 | 79 | 322 | 0.0 | 0.0 | 0.00 | 0.01 | 0.01 | 92 | 1013.7 |
| 20260903141631 | 80 | 316 | 1.0 | 1.0 | 0.00 | 0.01 | 0.01 | 89 | 1013.7 |
| 20260903141125 | 81 | 56 | 0.0 | 0.0 | 0.00 | 0.01 | 0.01 | 88 | 1013.2 |
| 20260903140622 | 80 | 45 | 0.0 | 0.0 | 0.00 | 0.01 | 0.01 | 90 | 1013.5 |
| 20260903140117 | 78 | 53 | 0.0 | 0.0 | 0.00 | 0.01 | 0.01 | 92 | 1013.4 |
| 20260903135613 | 79 | 299 | 0.0 | 0.0 | 0.00 | 0.01 | 0.01 | 91 | 1013.5 |
| 20260903135112 | 79 | 61 | 0.0 | 0.0 | 0.00 | 0.01 | 0.01 | 91 | 1013.6 |
| 20260903134611 | 78 | 316 | 0.0 | 0.0 | 0.00 | 0.01 | 0.01 | 93 | 1013.4 |
| 20260903134108 | 78 | 305 | 0.0 | 0.0 | 0.00 | 0.01 | 0.01 | 94 | 1013.7 |
| 20260903133605 | 77 | 307 | 0.0 | 0.0 | 0.00 | 0.01 | 0.01 | 97 | 1013.7 |
| 20260903133101 | 76 | 321 | 0.0 | 0.0 | 0.00 | 0.01 | 0.01 | 98 | 1014.0 |
| 20260903132556 | 75 | 265 | 0.0 | 0.0 | 0.00 | 0.01 | 0.01 | 99 | 1013.8 |
| 20260903132050 | 75 | 256 | 0.0 | 0.0 | 0.00 | 0.01 | 0.01 | 99 | 1014.0 |
| 20260903131549 | 75 | 60 | 0.0 | 0.0 | 0.00 | 0.01 | 0.01 | 99 | 1013.6 |
| 20260903131043 | 74 | 74 | 0.0 | 0.0 | 0.05 | 0.01 | 0.01 | 99 | 1013.8 |
| 20260903130538 | 74 | 68 | 0.0 | 0.0 | 0.05 | 0.01 | 0.01 | 99 | 1013.9 |
| 20260903130033 | 73 | 51 | 0.0 | 0.0 | 0.00 | 0.00 | 0.00 | 99 | 1013.9 |
| 20260903125531 | 73 | 84 | 0.0 | 0.0 | 0.00 | 0.00 | 0.00 | 99 | 1013.8 |
| 20260903125027 | 73 | 312 | 0.0 | 0.0 | 0.00 | 0.00 | 0.00 | 99 | 1013.7 |
| 20260903124527 | 73 | 312 | 0.0 | 0.0 | 0.00 | 0.00 | 0.00 | 99 | 1013.9 |
| 20260903124021 | 72 | 285 | 0.0 | 0.0 | 0.00 | 0.00 | 0.00 | 99 | 1014.0 |
| 20260903123521 | 72 | 82 | 0.0 | 0.0 | 0.00 | 0.00 | 0.00 | 99 | 1013.9 |
| 20260903123020 | 72 | 345 | 0.0 | 0.0 | 0.00 | 0.00 | 0.00 | 99 | 1014.0 |
| 20260903122514 | 71 | 41 | 0.0 | 0.0 | 0.00 | 0.00 | 0.00 | 99 | 1014.0 |
| 20260903122014 | 71 | 352 | 0.0 | 0.0 | 0.00 | 0.00 | 0.00 | 99 | 1014.1 |
| 20260903121509 | 70 | 267 | 0.0 | 0.0 | 0.00 | 0.00 | 0.00 | 99 | 1013.9 |
| 20260903121005 | 70 | 314 | 0.0 | 0.0 | 0.00 | 0.00 | 0.00 | 99 | 1014.1 |
| 20260903120503 | 70 | 343 | 0.0 | 0.0 | 0.00 | 0.00 | 0.00 | 99 | 1013.9 |
| 20260903120002 | 69 | 321 | 0.0 | 0.0 | 0.00 | 0.00 | 0.00 | 99 | 1013.8 |
| 20260903115456 | 69 | 310 | 0.0 | 0.0 | 0.00 | 0.00 | 0.00 | 99 | 1014.1 |
| 20260903114956 | 69 | 310 | 0.0 | 0.0 | 0.00 | 0.00 | 0.00 | 99 | 1014.0 |
| 20260903114451 | 69 | 297 | 0.0 | 0.0 | 0.00 | 0.00 | 0.00 | 99 | 1014.1 |
| 20260903113947 | 69 | 297 | 0.0 | 0.0 | 0.00 | 0.00 | 0.00 | 99 | 1013.8 |
| 20260903113443 | 69 | 289 | 0.0 | 0.0 | 0.00 | 0.00 | 0.00 | 99 | 1013.8 |
| 20260903112938 | 69 | 317 | 0.0 | 0.0 | 0.00 | 0.00 | 0.00 | 99 | 1013.7 |
| 20260903112434 | 68 | 320 | 0.0 | 0.0 | 0.00 | 0.00 | 0.00 | 99 | 1013.8 |
| 20260903111933 | 68 | 295 | 0.0 | 0.0 | 0.00 | 0.00 | 0.00 | 99 | 1013.8 |
| 20260903111427 | 68 | 294 | 0.0 | 0.0 | 0.00 | 0.00 | 0.00 | 99 | 1014.0 |
| 20260903110923 | 68 | 304 | 0.0 | 0.0 | 0.00 | 0.00 | 0.00 | 99 | 1013.8 |
| 20260903110419 | 68 | 298 | 0.0 | 0.0 | 0.00 | 0.00 | 0.00 | 99 | 1013.8 |
| 20260903105914 | 69 | 289 | 0.0 | 0.0 | 0.00 | 0.00 | 0.00 | 99 | 1013.5 |
| 20260903105409 | 69 | 303 | 0.0 | 0.0 | 0.00 | 0.00 | 0.00 | 99 | 1013.4 |
| 20260903104909 | 69 | 304 | 0.0 | 0.0 | 0.00 | 0.00 | 0.00 | 99 | 1013.6 |
| 20260903104403 | 69 | 318 | 0.0 | 0.0 | 0.00 | 0.00 | 0.00 | 99 | 1013.5 |
| 20260903103900 | 69 | 304 | 0.0 | 0.0 | 0.00 | 0.00 | 0.00 | 99 | 1013.4 |
| 20260903103356 | 69 | 313 | 0.0 | 0.0 | 0.00 | 0.00 | 0.00 | 99 | 1013.3 |
| 20260903102850 | 69 | 303 | 0.0 | 0.0 | 0.00 | 0.00 | 0.00 | 99 | 1013.8 |
| 20260903102345 | 69 | 302 | 0.0 | 0.0 | 0.00 | 0.00 | 0.00 | 99 | 1013.5 |
| 20260903101844 | 69 | 304 | 0.0 | 0.0 | 0.00 | 0.00 | 0.00 | 99 | 1013.5 |
| 20260903101334 | 69 | 293 | 0.0 | 0.0 | 0.00 | 0.00 | 0.00 | 99 | 1013.2 |
| 20260903100830 | 69 | 291 | 0.0 | 0.0 | 0.00 | 0.00 | 0.00 | 99 | 1013.3 |
| 20260903100330 | 69 | 309 | 0.0 | 0.0 | 0.00 | 0.00 | 0.00 | 99 | 1013.2 |
| 20260903095827 | 69 | 309 | 0.0 | 0.0 | 0.00 | 0.00 | 0.00 | 99 | 1013.3 |
| 20260903095321 | 69 | 319 | 0.0 | 0.0 | 0.00 | 0.00 | 0.00 | 99 | 1013.5 |
| 20260903094816 | 69 | 320 | 0.0 | 0.0 | 0.00 | 0.00 | 0.00 | 99 | 1013.2 |
| 20260903094311 | 69 | 282 | 0.0 | 0.0 | 0.00 | 0.00 | 0.00 | 99 | 1013.5 |
| 20260903093807 | 69 | 268 | 0.0 | 0.0 | 0.00 | 0.00 | 0.00 | 99 | 1013.3 |
| 20260903093301 | 69 | 304 | 0.0 | 0.0 | 0.00 | 0.00 | 0.00 | 99 | 1013.4 |
| 20260903092756 | 69 | 298 | 0.0 | 0.0 | 0.00 | 0.00 | 0.00 | 99 | 1013.2 |
| 20260903092251 | 69 | 298 | 0.0 | 0.0 | 0.00 | 0.00 | 0.00 | 99 | 1013.3 |
| 20260903091750 | 69 | 293 | 0.0 | 0.0 | 0.00 | 0.00 | 0.00 | 99 | 1013.3 |
| 20260903091244 | 69 | 303 | 0.0 | 0.0 | 0.00 | 0.00 | 0.00 | 99 | 1013.1 |
| 20260903090740 | 70 | 308 | 0.0 | 0.0 | 0.00 | 0.00 | 0.00 | 99 | 1013.2 |
| 20260903090239 | 70 | 282 | 0.0 | 0.0 | 0.00 | 0.00 | 0.00 | 99 | 1013.1 |
| 20260903085737 | 70 | 280 | 0.0 | 0.0 | 0.00 | 0.00 | 0.00 | 99 | 1013.1 |
| 20260903085233 | 70 | 278 | 0.0 | 0.0 | 0.00 | 0.00 | 0.00 | 99 | 1013.4 |
| 20260903084730 | 70 | 313 | 0.0 | 0.0 | 0.00 | 0.00 | 0.00 | 99 | 1012.9 |
| 20260903084226 | 70 | 280 | 0.0 | 0.0 | 0.00 | 0.00 | 0.00 | 99 | 1012.9 |
| 20260903083721 | 70 | 317 | 0.0 | 0.0 | 0.00 | 0.00 | 0.00 | 99 | 1013.1 |
| 20260903083221 | 70 | 295 | 0.0 | 0.0 | 0.00 | 0.00 | 0.00 | 99 | 1013.1 |
| 20260903082715 | 70 | 303 | 0.0 | 0.0 | 0.00 | 0.00 | 0.00 | 99 | 1012.9 |
| 20260903082211 | 70 | 297 | 0.0 | 0.0 | 0.00 | 0.00 | 0.00 | 99 | 1013.0 |
| 20260903081710 | 70 | 329 | 0.0 | 0.0 | 0.00 | 0.00 | 0.00 | 99 | 1013.0 |
| 20260903081207 | 70 | 290 | 0.0 | 0.0 | 0.00 | 0.00 | 0.00 | 99 | 1013.0 |
| 20260903080703 | 70 | 282 | 0.0 | 0.0 | 0.00 | 0.00 | 0.00 | 99 | 1013.0 |
| 20260903080200 | 70 | 304 | 0.0 | 0.0 | 0.00 | 0.00 | 0.00 | 99 | 1012.6 |
| 20260903075659 | 70 | 301 | 0.0 | 0.0 | 0.00 | 0.00 | 0.00 | 99 | 1013.0 |
| 20260903075154 | 70 | 301 | 0.0 | 0.0 | 0.00 | 0.00 | 0.00 | 99 | 1012.9 |
| 20260903074653 | 70 | 300 | 0.0 | 0.0 | 0.00 | 0.00 | 0.00 | 99 | 1012.7 |
| 20260903074149 | 70 | 277 | 0.0 | 0.0 | 0.00 | 0.00 | 0.00 | 99 | 1012.7 |
| 20260903073644 | 70 | 287 | 0.0 | 0.0 | 0.00 | 0.00 | 0.00 | 99 | 1012.7 |
| 20260903073139 | 70 | 289 | 0.0 | 0.0 | 0.00 | 0.00 | 0.00 | 99 | 1012.9 |
| 20260903072634 | 70 | 274 | 0.0 | 0.0 | 0.00 | 0.00 | 0.00 | 99 | 1012.7 |
| 20260903072131 | 70 | 281 | 0.0 | 0.0 | 0.00 | 0.00 | 0.00 | 99 | 1013.0 |
| 20260903071627 | 70 | 305 | 0.0 | 0.0 | 0.00 | 0.00 | 0.00 | 99 | 1013.0 |
| 20260903071123 | 70 | 275 | 0.0 | 0.0 | 0.00 | 0.00 | 0.00 | 99 | 1013.1 |
| 20260903070623 | 70 | 273 | 0.0 | 0.0 | 0.00 | 0.00 | 0.00 | 99 | 1013.0 |
| 20260903070119 | 70 | 282 | 0.0 | 0.0 | 0.00 | 0.00 | 0.00 | 99 | 1013.2 |
| 20260903065618 | 70 | 299 | 0.0 | 0.0 | 0.00 | 0.00 | 0.00 | 99 | 1012.7 |
| 20260903065118 | 70 | 299 | 0.0 | 0.0 | 0.00 | 0.00 | 0.00 | 99 | 1012.9 |
| 20260903064612 | 70 | 302 | 0.0 | 0.0 | 0.00 | 0.00 | 0.00 | 99 | 1012.7 |
| 20260903064107 | 70 | 299 | 0.0 | 0.0 | 0.00 | 0.00 | 0.00 | 99 | 1012.9 |
| 20260903063603 | 70 | 315 | 0.0 | 0.0 | 0.00 | 0.00 | 0.00 | 99 | 1013.0 |
| 20260903063058 | 70 | 315 | 0.0 | 0.0 | 0.00 | 0.00 | 0.00 | 99 | 1012.9 |
| 20260903062554 | 71 | 316 | 0.0 | 0.0 | 0.00 | 0.00 | 0.00 | 99 | 1012.9 |
| 20260903062049 | 71 | 316 | 0.0 | 0.0 | 0.00 | 0.00 | 0.00 | 99 | 1012.9 |
| 20260903061544 | 71 | 322 | 0.0 | 0.0 | 0.00 | 0.00 | 0.00 | 99 | 1012.9 |
| 20260903061044 | 71 | 303 | 0.0 | 0.0 | 0.00 | 0.00 | 0.00 | 99 | 1012.9 |
| 20260903060543 | 71 | 322 | 0.0 | 0.0 | 0.00 | 0.00 | 0.00 | 99 | 1013.0 |
| 20260903060038 | 71 | 251 | 0.0 | 0.0 | 0.00 | 0.00 | 0.00 | 99 | 1013.1 |
| 20260903055536 | 71 | 294 | 0.0 | 0.0 | 0.00 | 0.00 | 0.00 | 99 | 1013.0 |
| 20260903055035 | 71 | 255 | 0.0 | 0.0 | 0.00 | 0.00 | 0.00 | 99 | 1013.0 |
| 20260903054530 | 71 | 283 | 0.0 | 0.0 | 0.00 | 0.00 | 0.00 | 99 | 1013.0 |
| 20260903054026 | 71 | 300 | 0.0 | 0.0 | 0.00 | 0.00 | 0.00 | 99 | 1012.7 |
| 20260903053526 | 71 | 299 | 0.0 | 0.0 | 0.00 | 0.00 | 0.00 | 99 | 1012.6 |
| 20260903053022 | 71 | 290 | 0.0 | 0.0 | 0.00 | 0.00 | 0.00 | 99 | 1012.6 |
| 20260903052517 | 71 | 294 | 0.0 | 0.0 | 0.00 | 0.00 | 0.00 | 99 | 1012.6 |
| 20260903052013 | 71 | 328 | 0.0 | 0.0 | 0.00 | 0.00 | 0.00 | 99 | 1012.7 |
| 20260903051508 | 71 | 318 | 0.0 | 0.0 | 0.00 | 0.00 | 0.00 | 99 | 1012.7 |
| 20260903051004 | 71 | 318 | 0.0 | 0.0 | 0.00 | 0.00 | 0.00 | 99 | 1012.3 |
| 20260903050503 | 72 | 317 | 0.0 | 0.0 | 0.00 | 0.00 | 0.00 | 99 | 1012.9 |
| 20260903045957 | 72 | 51 | 0.0 | 0.0 | 0.00 | 0.00 | 0.00 | 99 | 1012.7 |
| 20260903045453 | 72 | 300 | 0.0 | 0.0 | 0.00 | 0.00 | 0.00 | 99 | 1013.0 |
| 20260903044949 | 72 | 286 | 0.0 | 0.0 | 0.00 | 0.00 | 0.00 | 99 | 1012.9 |
| 20260903044445 | 72 | 283 | 0.0 | 0.0 | 0.00 | 0.00 | 0.00 | 99 | 1013.0 |
| 20260903043941 | 72 | 273 | 0.0 | 0.0 | 0.00 | 0.00 | 0.00 | 99 | 1012.6 |
| 20260903043436 | 72 | 259 | 0.0 | 0.0 | 0.00 | 0.00 | 0.00 | 99 | 1012.6 |
| 20260903042934 | 72 | 305 | 0.0 | 0.0 | 0.00 | 0.00 | 0.00 | 99 | 1012.5 |
| 20260903042430 | 72 | 313 | 0.0 | 0.0 | 0.00 | 0.00 | 0.00 | 99 | 1012.4 |
| 20260903041926 | 72 | 299 | 0.0 | 0.0 | 0.00 | 0.00 | 0.00 | 99 | 1012.6 |
| 20260903041422 | 72 | 300 | 0.0 | 0.0 | 0.00 | 0.00 | 0.00 | 99 | 1012.7 |
| 20260903040918 | 73 | 306 | 0.0 | 0.0 | 0.00 | 0.00 | 0.00 | 99 | 1012.7 |
| 20260903040416 | 73 | 275 | 0.0 | 0.0 | 0.00 | 0.00 | 0.00 | 99 | 1012.6 |
| 20260903035913 | 73 | 188 | 2.0 | 2.0 | 0.00 | 0.21 | 0.21 | 99 | 1012.6 |
| 20260903035408 | 72 | 221 | 0.0 | 0.0 | 0.00 | 0.21 | 0.21 | 99 | 1012.1 |
| 20260903034903 | 72 | 318 | 0.0 | 0.0 | 0.00 | 0.21 | 0.21 | 99 | 1012.0 |
| 20260903034358 | 72 | 291 | 0.0 | 0.0 | 0.00 | 0.21 | 0.21 | 99 | 1012.2 |
| 20260903033853 | 73 | 284 | 0.0 | 0.0 | 0.00 | 0.21 | 0.21 | 99 | 1011.9 |
| 20260903033348 | 73 | 290 | 0.0 | 0.0 | 0.00 | 0.21 | 0.21 | 99 | 1011.8 |
| 20260903032848 | 73 | 311 | 0.0 | 0.0 | 0.00 | 0.21 | 0.21 | 99 | 1011.8 |
| 20260903032344 | 73 | 310 | 0.0 | 0.0 | 0.00 | 0.21 | 0.21 | 99 | 1011.8 |
| 20260903031839 | 73 | 285 | 0.0 | 0.0 | 0.00 | 0.21 | 0.21 | 99 | 1011.9 |
| 20260903031338 | 73 | 311 | 0.0 | 0.0 | 0.00 | 0.21 | 0.21 | 99 | 1011.9 |
| 20260903030834 | 73 | 306 | 0.0 | 0.0 | 0.00 | 0.21 | 0.21 | 99 | 1012.0 |
| 20260903030330 | 73 | 312 | 0.0 | 0.0 | 0.00 | 0.21 | 0.21 | 99 | 1011.7 |
| 20260903025826 | 73 | 303 | 0.0 | 0.0 | 0.00 | 0.21 | 0.21 | 99 | 1012.0 |
| 20260903025321 | 73 | 291 | 0.0 | 0.0 | 0.00 | 0.21 | 0.21 | 99 | 1012.2 |
| 20260903024820 | 73 | 283 | 0.0 | 0.0 | 0.00 | 0.21 | 0.21 | 99 | 1012.1 |
| 20260903024320 | 73 | 270 | 0.0 | 0.0 | 0.00 | 0.21 | 0.21 | 99 | 1011.9 |
| 20260903023816 | 73 | 300 | 0.0 | 0.0 | 0.00 | 0.21 | 0.21 | 99 | 1011.5 |
| 20260903023311 | 74 | 312 | 0.0 | 0.0 | 0.00 | 0.21 | 0.21 | 99 | 1011.2 |
| 20260903022806 | 74 | 306 | 0.0 | 0.0 | 0.00 | 0.21 | 0.21 | 99 | 1011.3 |
| 20260903022306 | 74 | 317 | 0.0 | 0.0 | 0.00 | 0.21 | 0.21 | 99 | 1011.7 |
| 20260903021759 | 74 | 59 | 0.0 | 0.0 | 0.00 | 0.21 | 0.21 | 99 | 1011.9 |
| 20260903021255 | 74 | 292 | 0.0 | 0.0 | 0.00 | 0.21 | 0.21 | 99 | 1012.1 |
| 20260903020754 | 74 | 324 | 0.0 | 0.0 | 0.00 | 0.21 | 0.21 | 99 | 1012.4 |
| 20260903020249 | 74 | 322 | 0.0 | 0.0 | 0.00 | 0.21 | 0.21 | 99 | 1012.3 |
| 20260903015744 | 74 | 310 | 0.0 | 0.0 | 0.00 | 0.21 | 0.21 | 99 | 1012.5 |
| 20260903015240 | 74 | 50 | 0.0 | 0.0 | 0.00 | 0.21 | 0.21 | 99 | 1012.5 |
| 20260903014735 | 74 | 9 | 0.0 | 0.0 | 0.00 | 0.21 | 0.21 | 99 | 1012.4 |
| 20260903014234 | 75 | 258 | 0.0 | 0.0 | 0.00 | 0.21 | 0.21 | 99 | 1012.3 |
| 20260903013730 | 74 | 307 | 0.0 | 0.0 | 0.00 | 0.21 | 0.21 | 99 | 1012.4 |
| 20260903013229 | 75 | 292 | 0.0 | 0.0 | 0.00 | 0.21 | 0.21 | 99 | 1012.3 |
| 20260903012727 | 74 | 312 | 0.0 | 0.0 | 0.00 | 0.21 | 0.21 | 99 | 1012.4 |
| 20260903012221 | 75 | 308 | 0.0 | 0.0 | 0.00 | 0.21 | 0.21 | 99 | 1012.3 |
| 20260903011716 | 75 | 300 | 0.0 | 0.0 | 0.00 | 0.21 | 0.21 | 99 | 1012.3 |
| 20260903011209 | 75 | 321 | 0.0 | 0.0 | 0.00 | 0.21 | 0.21 | 99 | 1012.0 |
| 20260903010706 | 74 | 285 | 0.0 | 0.0 | 0.00 | 0.21 | 0.21 | 99 | 1012.0 |
| 20260903010205 | 75 | 287 | 0.0 | 0.0 | 0.00 | 0.21 | 0.21 | 99 | 1012.0 |
| 20260903005659 | 75 | 298 | 0.0 | 0.0 | 0.00 | 0.21 | 0.21 | 99 | 1011.9 |
| 20260903005154 | 75 | 319 | 0.0 | 0.0 | 0.00 | 0.21 | 0.21 | 99 | 1011.7 |
| 20260903004650 | 75 | 291 | 0.0 | 0.0 | 0.00 | 0.21 | 0.21 | 99 | 1011.8 |
| 20260903004144 | 75 | 291 | 0.0 | 0.0 | 0.00 | 0.21 | 0.21 | 98 | 1011.6 |
| 20260903003640 | 75 | 320 | 0.0 | 0.0 | 0.00 | 0.21 | 0.21 | 98 | 1011.7 |
| 20260903003135 | 75 | 322 | 0.0 | 0.0 | 0.00 | 0.21 | 0.21 | 97 | 1011.5 |
| 20260903002630 | 75 | 318 | 0.0 | 0.0 | 0.00 | 0.21 | 0.21 | 97 | 1011.6 |
| 20260903002124 | 75 | 300 | 0.0 | 0.0 | 0.00 | 0.21 | 0.21 | 97 | 1011.4 |
| 20260903001619 | 76 | 307 | 0.0 | 0.0 | 0.00 | 0.21 | 0.21 | 96 | 1011.6 |
| 20260903001113 | 76 | 304 | 0.0 | 0.0 | 0.00 | 0.21 | 0.21 | 96 | 1011.6 |
| 20260903000609 | 76 | 80 | 0.0 | 0.0 | 0.00 | 0.21 | 0.21 | 95 | 1011.4 |
| 20260903000108 | 76 | 293 | 0.0 | 0.0 | 0.00 | 0.21 | 0.21 | 95 | 1011.4 |
| 20260902235607 | 76 | 308 | 0.0 | 0.0 | 0.00 | 0.21 | 0.21 | 94 | 1011.7 |
| 20260902235102 | 77 | 328 | 0.0 | 0.0 | 0.00 | 0.21 | 0.21 | 94 | 1011.7 |
| 20260902234556 | 77 | 341 | 0.0 | 0.0 | 0.00 | 0.21 | 0.21 | 94 | 1011.7 |
| 20260902234055 | 77 | 99 | 0.0 | 0.0 | 0.00 | 0.21 | 0.21 | 95 | 1011.8 |
| 20260902233550 | 78 | 93 | 0.0 | 0.0 | 0.00 | 0.21 | 0.21 | 97 | 1011.8 |
| 20260902233044 | 77 | 335 | 0.0 | 0.0 | 0.00 | 0.21 | 0.21 | 96 | 1011.7 |
| 20260902232544 | 78 | 356 | 0.0 | 1.0 | 0.00 | 0.21 | 0.21 | 96 | 1011.9 |
| 20260902232038 | 79 | 38 | 1.0 | 1.0 | 0.00 | 0.21 | 0.21 | 97 | 1011.7 |
| 20260902231533 | 80 | 327 | 1.0 | 2.0 | 0.00 | 0.21 | 0.21 | 97 | 1011.6 |
| 20260902231033 | 80 | 4 | 0.0 | 0.0 | 0.00 | 0.21 | 0.21 | 96 | 1011.5 |
| 20260902230533 | 80 | 327 | 0.0 | 0.0 | 0.00 | 0.21 | 0.21 | 95 | 1011.3 |
| 20260902230026 | 80 | 281 | 0.0 | 0.0 | 0.00 | 0.21 | 0.21 | 95 | 1011.1 |
| 20260902225522 | 80 | 316 | 0.0 | 0.0 | 0.00 | 0.21 | 0.21 | 95 | 1011.0 |
| 20260902225016 | 80 | 306 | 0.0 | 0.0 | 0.00 | 0.21 | 0.21 | 95 | 1011.0 |
| 20260902224515 | 80 | 284 | 0.0 | 0.0 | 0.00 | 0.21 | 0.21 | 94 | 1011.0 |
| 20260902224011 | 81 | 293 | 0.0 | 0.0 | 0.00 | 0.21 | 0.21 | 92 | 1011.0 |
| 20260902223507 | 80 | 308 | 0.0 | 0.0 | 0.07 | 0.21 | 0.21 | 89 | 1011.1 |
| 20260902223006 | 82 | 298 | 0.0 | 0.0 | 0.07 | 0.21 | 0.21 | 87 | 1011.0 |
| 20260902222504 | 83 | 308 | 0.0 | 0.0 | 0.00 | 0.20 | 0.20 | 82 | 1011.0 |
| 20260902221958 | 83 | 19 | 0.0 | 0.0 | 0.00 | 0.20 | 0.20 | 78 | 1011.0 |
| 20260902221458 | 83 | 255 | 0.0 | 0.0 | 0.00 | 0.20 | 0.20 | 79 | 1011.2 |
| 20260902220953 | 83 | 25 | 0.0 | 0.0 | 0.00 | 0.20 | 0.20 | 79 | 1011.1 |
| 20260902220453 | 83 | 336 | 0.0 | 0.0 | 0.00 | 0.20 | 0.20 | 79 | 1011.2 |
| 20260902215942 | 86 | 209 | 3.0 | 5.0 | 0.00 | 0.20 | 0.20 | 77 | 1011.6 |
| 20260902215438 | 90 | 321 | 4.0 | 6.0 | 0.00 | 0.20 | 0.20 | 67 | 1011.5 |
| 20260902214934 | 92 | 251 | 2.0 | 2.0 | 0.00 | 0.20 | 0.20 | 65 | 1011.0 |
| 20260902214432 | 93 | 2 | 0.0 | 2.0 | 0.00 | 0.20 | 0.20 | 63 | 1010.6 |
| 20260902213927 | 92 | 222 | 1.0 | 2.0 | 0.00 | 0.20 | 0.20 | 64 | 1010.8 |
| 20260902213423 | 92 | 293 | 2.0 | 5.0 | 0.00 | 0.20 | 0.20 | 63 | 1010.1 |
| 20260902212922 | 91 | 275 | 7.0 | 8.0 | 0.00 | 0.20 | 0.20 | 63 | 1010.2 |
| 20260902212418 | 92 | 280 | 5.0 | 8.0 | 0.00 | 0.20 | 0.20 | 63 | 1009.9 |
| 20260902211914 | 91 | 272 | 5.0 | 6.0 | 0.00 | 0.20 | 0.20 | 64 | 1010.5 |